Year,Month,Day,Hour,Minute,Value (Times are PST for temperature in C)
2018,07,06,00,00,14.80
2018,07,06,00,01,14.80
2018,07,06,00,02,14.80
2018,07,06,00,03,14.80
2018,07,06,00,04,14.80
2018,07,06,00,05,14.80
2018,07,06,00,06,14.80
2018,07,06,00,07,14.80
2018,07,06,00,08,14.80
2018,07,06,00,09,14.80
2018,07,06,00,10,14.80
2018,07,06,00,11,14.80
2018,07,06,00,12,14.90
2018,07,06,00,13,14.90
2018,07,06,00,14,14.90
2018,07,06,00,15,14.90
2018,07,06,00,16,14.90
2018,07,06,00,18,15.00
2018,07,06,00,19,15.00
2018,07,06,00,30,15.00
2018,07,06,00,32,14.90
2018,07,06,00,33,14.90
2018,07,06,00,34,14.90
2018,07,06,00,35,14.90
2018,07,06,00,36,14.90
2018,07,06,00,37,14.90
2018,07,06,00,38,14.90
2018,07,06,00,39,14.90
2018,07,06,00,40,14.90
2018,07,06,00,41,14.90
2018,07,06,00,42,14.90
2018,07,06,00,43,14.90
2018,07,06,00,44,14.90
2018,07,06,00,45,14.90
2018,07,06,00,46,14.90
2018,07,06,00,47,14.90
2018,07,06,00,48,14.90
2018,07,06,00,49,14.90
2018,07,06,00,50,14.90
2018,07,06,00,51,15.00
2018,07,06,00,52,15.00
2018,07,06,00,53,15.00
2018,07,06,00,54,15.00
2018,07,06,00,55,15.00
2018,07,06,00,56,15.00
2018,07,06,00,57,15.00
2018,07,06,00,58,15.00
2018,07,06,00,59,15.00
2018,07,06,01,00,15.00
2018,07,06,01,01,15.00
2018,07,06,01,02,15.00
2018,07,06,01,03,15.00
2018,07,06,01,04,14.90
2018,07,06,01,05,14.90
2018,07,06,01,06,14.90
2018,07,06,01,07,14.90
2018,07,06,01,08,14.90
2018,07,06,01,09,14.90
2018,07,06,01,10,14.90
2018,07,06,01,11,14.90
2018,07,06,01,12,14.90
2018,07,06,01,13,14.90
2018,07,06,01,14,14.90
2018,07,06,01,15,14.90
2018,07,06,01,16,14.90
2018,07,06,01,17,14.90
2018,07,06,01,18,14.90
2018,07,06,01,19,14.90
2018,07,06,01,20,14.90
2018,07,06,01,21,14.90
2018,07,06,01,22,14.90
2018,07,06,01,23,14.90
2018,07,06,01,24,14.90
2018,07,06,01,25,14.90
2018,07,06,01,26,14.90
2018,07,06,01,27,14.90
2018,07,06,01,28,14.90
2018,07,06,01,29,14.90
2018,07,06,01,30,14.90
2018,07,06,01,31,14.90
2018,07,06,01,32,14.80
2018,07,06,01,33,14.80
2018,07,06,01,34,14.80
2018,07,06,01,35,14.80
2018,07,06,01,36,14.80
2018,07,06,01,37,14.70
2018,07,06,01,38,14.70
2018,07,06,01,39,14.70
2018,07,06,01,40,14.70
2018,07,06,01,41,14.60
2018,07,06,01,42,14.60
2018,07,06,01,43,14.60
2018,07,06,01,44,14.60
2018,07,06,01,45,14.60
2018,07,06,01,46,14.60
2018,07,06,01,47,14.50
2018,07,06,01,48,14.50
2018,07,06,01,49,14.50
2018,07,06,01,50,14.50
2018,07,06,01,51,14.50
2018,07,06,01,52,14.40
2018,07,06,01,53,14.40
2018,07,06,01,54,14.40
2018,07,06,01,55,14.40
2018,07,06,01,56,14.40
2018,07,06,01,57,14.40
2018,07,06,01,58,14.30
2018,07,06,01,59,14.30
2018,07,06,02,00,14.30
2018,07,06,02,01,14.30
2018,07,06,02,02,14.30
2018,07,06,02,03,14.20
2018,07,06,02,04,14.20
2018,07,06,02,05,14.20
2018,07,06,02,06,14.20
2018,07,06,02,07,14.20
2018,07,06,02,08,14.10
2018,07,06,02,09,14.10
2018,07,06,02,10,14.00
2018,07,06,02,11,13.90
2018,07,06,02,12,13.90
2018,07,06,02,13,13.80
2018,07,06,02,14,13.80
2018,07,06,02,15,13.70
2018,07,06,02,16,13.70
2018,07,06,02,17,13.70
2018,07,06,02,18,13.60
2018,07,06,02,19,13.60
2018,07,06,02,20,13.60
2018,07,06,02,21,13.60
2018,07,06,02,22,13.50
2018,07,06,02,23,13.50
2018,07,06,02,24,13.50
2018,07,06,02,25,13.50
2018,07,06,02,26,13.50
2018,07,06,02,27,13.50
2018,07,06,02,28,13.50
2018,07,06,02,29,13.50
2018,07,06,02,30,13.50
2018,07,06,02,31,13.50
2018,07,06,02,32,13.50
2018,07,06,02,33,13.50
2018,07,06,02,34,13.50
2018,07,06,02,35,13.50
2018,07,06,02,36,13.60
2018,07,06,02,37,13.60
2018,07,06,02,38,13.60
2018,07,06,02,39,13.60
2018,07,06,02,40,13.60
2018,07,06,02,41,13.60
2018,07,06,02,42,13.60
2018,07,06,02,43,13.60
2018,07,06,02,44,13.60
2018,07,06,02,45,13.70
2018,07,06,02,46,13.70
2018,07,06,02,47,13.70
2018,07,06,02,48,13.70
2018,07,06,02,49,13.70
2018,07,06,02,50,13.70
2018,07,06,02,51,13.70
2018,07,06,02,52,13.70
2018,07,06,02,53,13.70
2018,07,06,02,54,13.70
2018,07,06,02,55,13.70
2018,07,06,02,56,13.70
2018,07,06,02,57,13.70
2018,07,06,02,58,13.70
2018,07,06,02,59,13.70
2018,07,06,03,00,13.70
2018,07,06,03,01,13.70
2018,07,06,03,02,13.60
2018,07,06,03,03,13.60
2018,07,06,03,04,13.60
2018,07,06,03,05,13.60
2018,07,06,03,06,13.60
2018,07,06,03,07,13.50
2018,07,06,03,08,13.50
2018,07,06,03,09,13.50
2018,07,06,03,10,13.50
2018,07,06,03,11,13.50
2018,07,06,03,12,13.50
2018,07,06,03,13,13.50
2018,07,06,03,14,13.50
2018,07,06,03,15,13.40
2018,07,06,03,16,13.50
2018,07,06,03,17,13.50
2018,07,06,03,18,13.50
2018,07,06,03,19,13.50
2018,07,06,03,20,13.50
2018,07,06,03,21,13.50
2018,07,06,03,22,13.50
2018,07,06,03,23,13.50
2018,07,06,03,24,13.50
2018,07,06,03,25,13.50
2018,07,06,03,26,13.50
2018,07,06,03,27,13.50
2018,07,06,03,28,13.50
2018,07,06,03,29,13.50
2018,07,06,03,30,13.50
2018,07,06,03,31,13.50
2018,07,06,03,32,13.50
2018,07,06,03,33,13.50
2018,07,06,03,34,13.50
2018,07,06,03,35,13.50
2018,07,06,03,36,13.50
2018,07,06,03,37,13.40
2018,07,06,03,38,13.40
2018,07,06,03,39,13.40
2018,07,06,03,40,13.40
2018,07,06,03,41,13.40
2018,07,06,03,42,13.30
2018,07,06,03,43,13.30
2018,07,06,03,44,13.30
2018,07,06,03,45,13.30
2018,07,06,03,46,13.30
2018,07,06,03,47,13.30
2018,07,06,03,48,13.30
2018,07,06,03,49,13.30
2018,07,06,03,50,13.30
2018,07,06,03,51,13.30
2018,07,06,03,52,13.30
2018,07,06,03,53,13.30
2018,07,06,03,54,13.30
2018,07,06,03,55,13.20
2018,07,06,03,56,13.20
2018,07,06,03,57,13.20
2018,07,06,03,58,13.20
2018,07,06,03,59,13.20
2018,07,06,04,00,13.20
2018,07,06,04,01,13.10
2018,07,06,04,02,13.10
2018,07,06,04,03,13.10
2018,07,06,04,04,13.10
2018,07,06,04,05,13.10
2018,07,06,04,06,13.00
2018,07,06,04,07,13.00
2018,07,06,04,08,13.00
2018,07,06,04,09,13.00
2018,07,06,04,10,13.00
2018,07,06,04,11,13.00
2018,07,06,04,12,13.00
2018,07,06,04,13,13.00
2018,07,06,04,14,12.90
2018,07,06,04,15,12.90
2018,07,06,04,16,12.90
2018,07,06,04,17,12.90
2018,07,06,04,18,13.00
2018,07,06,04,19,13.00
2018,07,06,04,20,13.00
2018,07,06,04,21,13.00
2018,07,06,04,22,13.00
2018,07,06,04,23,13.00
2018,07,06,04,24,13.00
2018,07,06,04,25,13.00
2018,07,06,04,26,13.00
2018,07,06,04,27,13.00
2018,07,06,04,28,13.00
2018,07,06,04,29,13.00
2018,07,06,04,30,13.00
2018,07,06,04,31,13.00
2018,07,06,04,32,13.00
2018,07,06,04,33,13.00
2018,07,06,04,34,13.00
2018,07,06,04,35,13.00
2018,07,06,04,36,13.00
2018,07,06,04,37,12.90
2018,07,06,04,38,12.90
2018,07,06,04,39,12.90
2018,07,06,04,40,12.90
2018,07,06,04,41,12.90
2018,07,06,04,42,12.90
2018,07,06,04,43,12.90
2018,07,06,04,44,12.90
2018,07,06,04,45,12.90
2018,07,06,04,46,12.90
2018,07,06,04,47,12.90
2018,07,06,04,48,12.80
2018,07,06,04,49,12.80
2018,07,06,04,50,12.80
2018,07,06,04,51,12.80
2018,07,06,04,52,12.80
2018,07,06,04,53,12.80
2018,07,06,04,54,12.80
2018,07,06,04,55,12.80
2018,07,06,04,56,12.80
2018,07,06,04,57,12.80
2018,07,06,04,58,12.80
2018,07,06,04,59,12.80
2018,07,06,05,00,12.80
2018,07,06,05,01,12.80
2018,07,06,05,02,12.80
2018,07,06,05,03,12.80
2018,07,06,05,04,12.80
2018,07,06,05,05,12.80
2018,07,06,05,06,12.80
2018,07,06,05,07,12.80
2018,07,06,05,08,12.80
2018,07,06,05,09,12.80
2018,07,06,05,10,12.80
2018,07,06,05,11,12.80
2018,07,06,05,12,12.80
2018,07,06,05,13,12.80
2018,07,06,05,14,12.80
2018,07,06,05,15,12.80
2018,07,06,05,16,12.80
2018,07,06,05,17,12.80
2018,07,06,05,18,12.80
2018,07,06,05,19,12.80
2018,07,06,05,20,12.80
2018,07,06,05,21,12.80
2018,07,06,05,22,12.80
2018,07,06,05,23,12.80
2018,07,06,05,24,12.80
2018,07,06,05,25,12.80
2018,07,06,05,26,12.70
2018,07,06,05,27,12.70
2018,07,06,05,28,12.70
2018,07,06,05,29,12.70
2018,07,06,05,30,12.70
2018,07,06,05,31,12.70
2018,07,06,05,32,12.70
2018,07,06,05,33,12.70
2018,07,06,05,34,12.70
2018,07,06,05,35,12.80
2018,07,06,05,36,12.80
2018,07,06,05,37,12.80
2018,07,06,05,38,12.80
2018,07,06,05,39,12.80
2018,07,06,05,40,12.80
2018,07,06,05,41,12.80
2018,07,06,05,42,12.80
2018,07,06,05,43,12.80
2018,07,06,05,44,12.80
2018,07,06,05,45,12.80
2018,07,06,05,46,12.80
2018,07,06,05,47,12.80
2018,07,06,05,48,12.80
2018,07,06,05,49,12.80
2018,07,06,05,50,12.80
2018,07,06,05,51,12.80
2018,07,06,05,52,12.80
2018,07,06,05,53,12.80
2018,07,06,05,54,12.80
2018,07,06,05,55,12.90
2018,07,06,05,56,12.90
2018,07,06,05,57,12.90
2018,07,06,05,58,12.90
2018,07,06,05,59,12.90
2018,07,06,06,00,12.90
2018,07,06,06,01,12.90
2018,07,06,06,02,12.90
2018,07,06,06,03,12.90
2018,07,06,06,04,12.90
2018,07,06,06,05,13.00
2018,07,06,06,06,13.00
2018,07,06,06,07,13.00
2018,07,06,06,08,13.00
2018,07,06,06,09,13.00
2018,07,06,06,10,13.10
2018,07,06,06,11,13.10
2018,07,06,06,12,13.10
2018,07,06,06,13,13.10
2018,07,06,06,14,13.10
2018,07,06,06,15,13.10
2018,07,06,06,16,13.10
2018,07,06,06,17,13.10
2018,07,06,06,18,13.10
2018,07,06,06,19,13.10
2018,07,06,06,20,13.10
2018,07,06,06,21,13.10
2018,07,06,06,22,13.10
2018,07,06,06,23,13.20
2018,07,06,06,24,13.20
2018,07,06,06,25,13.20
2018,07,06,06,26,13.20
2018,07,06,06,27,13.20
2018,07,06,06,28,13.20
2018,07,06,06,29,13.20
2018,07,06,06,30,13.20
2018,07,06,07,31,13.30
2018,07,06,07,32,13.30
2018,07,06,07,33,13.30
2018,07,06,07,34,13.30
2018,07,06,07,35,13.30
2018,07,06,07,36,13.30
2018,07,06,07,37,13.30
2018,07,06,07,38,13.30
2018,07,06,07,39,13.30
2018,07,06,07,40,13.40
2018,07,06,07,41,13.40
2018,07,06,07,42,13.40
2018,07,06,07,43,13.40
2018,07,06,07,44,13.50
2018,07,06,07,45,13.50
2018,07,06,07,46,13.60
2018,07,06,07,47,13.60
2018,07,06,07,48,13.60
2018,07,06,07,49,13.70
2018,07,06,07,50,13.70
2018,07,06,07,51,13.70
2018,07,06,07,52,13.70
2018,07,06,07,53,13.70
2018,07,06,07,54,13.70
2018,07,06,07,55,13.80
2018,07,06,07,56,13.80
2018,07,06,07,57,13.80
2018,07,06,07,58,13.90
2018,07,06,07,59,13.90
2018,07,06,08,00,13.90
2018,07,06,08,01,13.80
2018,07,06,08,02,13.80
2018,07,06,08,03,13.80
2018,07,06,08,04,13.90
2018,07,06,08,05,13.90
2018,07,06,08,06,13.90
2018,07,06,08,07,13.90
2018,07,06,08,08,13.90
2018,07,06,08,09,13.90
2018,07,06,08,10,13.90
2018,07,06,08,11,13.90
2018,07,06,08,12,13.90
2018,07,06,08,13,14.00
2018,07,06,08,14,14.00
2018,07,06,08,15,14.00
2018,07,06,08,16,14.10
2018,07,06,08,17,14.10
2018,07,06,08,18,14.10
2018,07,06,08,19,14.20
2018,07,06,08,20,14.10
2018,07,06,08,21,14.10
2018,07,06,08,22,14.10
2018,07,06,08,23,14.10
2018,07,06,08,24,14.10
2018,07,06,08,25,14.10
2018,07,06,08,26,14.20
2018,07,06,08,27,14.20
2018,07,06,08,28,14.20
2018,07,06,08,29,14.30
2018,07,06,08,30,14.40
2018,07,06,08,31,14.40
2018,07,06,08,32,14.50
2018,07,06,08,33,14.50
2018,07,06,08,34,14.50
2018,07,06,08,35,14.60
2018,07,06,08,36,14.70
2018,07,06,08,37,14.80
2018,07,06,08,38,14.80
2018,07,06,08,39,14.80
2018,07,06,08,40,14.90
2018,07,06,08,41,14.90
2018,07,06,08,42,15.00
2018,07,06,08,43,15.00
2018,07,06,08,44,15.10
2018,07,06,08,45,15.20
2018,07,06,08,46,15.20
2018,07,06,08,47,15.30
2018,07,06,08,48,15.30
2018,07,06,08,49,15.40
2018,07,06,08,50,15.40
2018,07,06,08,51,15.40
2018,07,06,08,52,15.50
2018,07,06,08,53,15.50
2018,07,06,08,54,15.60
2018,07,06,08,55,15.70
2018,07,06,08,56,15.70
2018,07,06,08,57,15.70
2018,07,06,08,58,15.80
2018,07,06,08,59,15.80
2018,07,06,09,00,15.80
2018,07,06,09,01,15.90
2018,07,06,09,02,16.10
2018,07,06,09,03,16.10
2018,07,06,09,04,16.10
2018,07,06,09,05,16.20
2018,07,06,09,06,16.20
2018,07,06,09,07,16.30
2018,07,06,09,08,16.30
2018,07,06,09,09,16.40
2018,07,06,09,10,16.40
2018,07,06,09,11,16.40
2018,07,06,09,12,16.40
2018,07,06,09,13,16.40
2018,07,06,09,14,16.40
2018,07,06,09,15,16.40
2018,07,06,09,16,16.40
2018,07,06,09,17,16.40
2018,07,06,09,18,16.40
2018,07,06,09,19,16.40
2018,07,06,09,20,16.40
2018,07,06,09,21,16.40
2018,07,06,09,22,16.40
2018,07,06,09,23,16.40
2018,07,06,09,24,16.40
2018,07,06,09,25,16.40
2018,07,06,09,26,16.60
2018,07,06,09,27,16.60
2018,07,06,09,28,16.60
2018,07,06,09,29,16.70
2018,07,06,09,30,16.70
2018,07,06,09,31,16.70
2018,07,06,09,32,16.70
2018,07,06,09,33,16.80
2018,07,06,09,34,16.80
2018,07,06,09,35,16.80
2018,07,06,09,36,16.80
2018,07,06,09,37,16.80
2018,07,06,09,38,16.70
2018,07,06,09,39,16.70
2018,07,06,09,40,16.70
2018,07,06,09,41,16.70
2018,07,06,09,42,16.70
2018,07,06,09,43,16.70
2018,07,06,09,44,16.70
2018,07,06,09,45,16.80
2018,07,06,09,46,16.80
2018,07,06,09,47,16.80
2018,07,06,09,48,16.90
2018,07,06,09,49,16.90
2018,07,06,10,30,17.00
2018,07,06,10,31,17.00
2018,07,06,10,32,17.10
2018,07,06,10,33,17.10
2018,07,06,10,34,17.10
2018,07,06,10,35,17.00
2018,07,06,10,36,17.00
2018,07,06,10,37,17.00
2018,07,06,10,38,17.00
2018,07,06,10,39,17.10
2018,07,06,10,40,17.10
2018,07,06,10,41,17.20
2018,07,06,10,42,17.20
2018,07,06,10,43,17.20
2018,07,06,10,44,17.30
2018,07,06,10,45,17.30
2018,07,06,10,46,17.30
2018,07,06,10,47,17.30
2018,07,06,10,48,17.30
2018,07,06,10,49,17.30
2018,07,06,10,50,17.30
2018,07,06,10,51,17.20
2018,07,06,10,52,17.10
2018,07,06,10,53,17.00
2018,07,06,10,54,17.00
2018,07,06,10,55,17.00
2018,07,06,10,56,16.90
2018,07,06,10,57,16.90
2018,07,06,10,58,16.90
2018,07,06,10,59,16.90
2018,07,06,11,00,16.80
2018,07,06,11,01,16.80
2018,07,06,11,02,16.80
2018,07,06,11,03,16.70
2018,07,06,11,04,16.70
2018,07,06,11,05,16.70
2018,07,06,11,06,16.70
2018,07,06,11,07,16.70
2018,07,06,11,08,16.80
2018,07,06,11,09,16.80
2018,07,06,11,10,16.90
2018,07,06,11,11,16.90
2018,07,06,11,12,16.90
2018,07,06,11,13,17.00
2018,07,06,11,14,17.10
2018,07,06,11,15,17.10
2018,07,06,11,16,17.20
2018,07,06,11,17,17.20
2018,07,06,11,18,17.30
2018,07,06,11,19,17.30
2018,07,06,11,20,17.30
2018,07,06,11,21,17.30
2018,07,06,11,22,17.30
2018,07,06,11,23,17.20
2018,07,06,11,24,17.20
2018,07,06,11,25,17.10
2018,07,06,11,26,17.00
2018,07,06,11,27,17.00
2018,07,06,11,28,17.00
2018,07,06,11,29,16.90
2018,07,06,11,30,16.90
2018,07,06,11,31,16.80
2018,07,06,11,32,16.70
2018,07,06,11,33,16.70
2018,07,06,11,34,16.70
2018,07,06,11,35,16.60
2018,07,06,11,36,16.60
2018,07,06,11,37,16.60
2018,07,06,11,38,16.60
2018,07,06,11,39,16.60
2018,07,06,11,40,16.60
2018,07,06,11,41,16.60
2018,07,06,11,42,16.70
2018,07,06,11,43,16.70
2018,07,06,11,44,16.70
2018,07,06,11,45,16.60
2018,07,06,11,46,16.60
2018,07,06,11,47,16.60
2018,07,06,11,48,16.60
2018,07,06,11,49,16.70
2018,07,06,11,50,16.70
2018,07,06,11,51,16.80
2018,07,06,11,52,16.90
2018,07,06,11,53,16.90
2018,07,06,11,54,16.90
2018,07,06,11,55,17.00
2018,07,06,11,56,17.10
2018,07,06,11,57,17.30
2018,07,06,11,58,17.40
2018,07,06,11,59,17.50
2018,07,06,12,00,17.70
2018,07,06,12,01,17.80
2018,07,06,12,02,17.80
2018,07,06,12,03,17.90
2018,07,06,12,04,17.90
2018,07,06,12,05,17.90
2018,07,06,12,06,17.90
2018,07,06,12,07,17.90
2018,07,06,12,08,18.10
2018,07,06,12,09,18.20
2018,07,06,12,10,18.20
2018,07,06,12,11,18.20
2018,07,06,12,12,18.20
2018,07,06,12,13,18.20
2018,07,06,12,14,18.30
2018,07,06,12,15,18.30
2018,07,06,12,16,18.30
2018,07,06,12,17,18.40
2018,07,06,12,18,18.40
2018,07,06,12,19,18.40
2018,07,06,12,20,18.40
2018,07,06,12,21,18.40
2018,07,06,12,22,18.40
2018,07,06,12,23,18.30
2018,07,06,12,24,18.30
2018,07,06,12,25,18.20
2018,07,06,12,26,18.20
2018,07,06,12,27,18.20
2018,07,06,12,28,18.20
2018,07,06,12,29,18.10
2018,07,06,12,30,18.10
2018,07,06,13,30,19.40
2018,07,06,13,31,19.40
2018,07,06,13,32,19.50
2018,07,06,13,33,19.50
2018,07,06,13,34,19.60
2018,07,06,13,35,19.70
2018,07,06,13,36,19.70
2018,07,06,13,37,19.80
2018,07,06,13,38,19.80
2018,07,06,13,39,19.90
2018,07,06,13,40,19.90
2018,07,06,13,41,19.90
2018,07,06,13,42,19.90
2018,07,06,13,43,19.90
2018,07,06,13,44,19.90
2018,07,06,13,45,20.10
2018,07,06,13,46,20.10
2018,07,06,13,47,20.10
2018,07,06,13,48,20.20
2018,07,06,13,49,20.20
2018,07,06,13,50,20.20
2018,07,06,13,51,20.20
2018,07,06,13,52,20.20
2018,07,06,13,53,20.20
2018,07,06,13,54,20.30
2018,07,06,13,55,20.40
2018,07,06,13,56,20.50
2018,07,06,13,57,20.60
2018,07,06,13,58,20.70
2018,07,06,13,59,20.70
2018,07,06,14,00,20.80
2018,07,06,14,01,20.80
2018,07,06,14,02,20.90
2018,07,06,14,03,20.90
2018,07,06,14,04,21.00
2018,07,06,14,05,21.10
2018,07,06,14,06,21.20
2018,07,06,14,07,21.20
2018,07,06,14,08,21.30
2018,07,06,14,09,21.30
2018,07,06,14,10,21.30
2018,07,06,14,11,21.30
2018,07,06,14,12,21.30
2018,07,06,14,13,21.30
2018,07,06,14,14,21.30
2018,07,06,14,15,21.30
2018,07,06,14,16,21.40
2018,07,06,14,17,21.40
2018,07,06,14,18,21.40
2018,07,06,14,19,21.60
2018,07,06,14,20,21.40
2018,07,06,14,21,21.60
2018,07,06,14,22,21.40
2018,07,06,14,23,21.40
2018,07,06,14,24,21.30
2018,07,06,14,25,21.30
2018,07,06,14,26,21.30
2018,07,06,14,27,21.30
2018,07,06,14,28,21.30
2018,07,06,14,29,21.20
2018,07,06,14,30,21.10
2018,07,06,14,31,21.00
2018,07,06,14,32,20.90
2018,07,06,14,33,20.90
2018,07,06,14,34,20.80
2018,07,06,14,35,20.80
2018,07,06,14,36,20.70
2018,07,06,14,37,20.80
2018,07,06,14,38,20.80
2018,07,06,14,39,20.80
2018,07,06,14,40,20.90
2018,07,06,14,41,20.90
2018,07,06,14,42,21.00
2018,07,06,14,43,21.00
2018,07,06,14,44,21.00
2018,07,06,14,45,21.10
2018,07,06,14,46,21.10
2018,07,06,14,47,21.10
2018,07,06,14,48,21.10
2018,07,06,14,49,21.00
2018,07,06,14,50,21.00
2018,07,06,14,51,20.90
2018,07,06,14,52,20.90
2018,07,06,14,53,20.90
2018,07,06,14,54,20.90
2018,07,06,14,55,20.90
2018,07,06,14,56,20.90
2018,07,06,14,57,20.90
2018,07,06,14,58,20.90
2018,07,06,14,59,21.00
2018,07,06,15,00,21.00
2018,07,06,15,01,21.00
2018,07,06,15,02,21.00
2018,07,06,15,03,21.10
2018,07,06,15,04,21.10
2018,07,06,15,05,21.20
2018,07,06,15,06,21.20
2018,07,06,15,07,21.30
2018,07,06,15,08,21.30
2018,07,06,15,09,21.40
2018,07,06,15,10,21.60
2018,07,06,15,11,21.60
2018,07,06,15,12,21.60
2018,07,06,15,13,21.60
2018,07,06,15,14,21.70
2018,07,06,15,15,21.70
2018,07,06,15,16,21.80
2018,07,06,15,17,21.80
2018,07,06,15,18,21.80
2018,07,06,15,19,21.70
2018,07,06,15,20,21.70
2018,07,06,15,21,21.70
2018,07,06,15,22,21.60
2018,07,06,15,23,21.60
2018,07,06,15,24,21.60
2018,07,06,15,25,21.30
2018,07,06,15,26,21.30
2018,07,06,15,27,21.30
2018,07,06,15,28,21.30
2018,07,06,15,29,21.30
2018,07,06,15,30,21.20
2018,07,06,15,31,21.10
2018,07,06,15,32,21.00
2018,07,06,15,33,20.80
2018,07,06,15,34,20.80
2018,07,06,15,35,20.70
2018,07,06,15,36,20.70
2018,07,06,15,37,20.80
2018,07,06,15,38,20.80
2018,07,06,15,39,20.80
2018,07,06,15,40,20.90
2018,07,06,15,41,20.90
2018,07,06,15,42,20.90
2018,07,06,15,43,20.80
2018,07,06,15,44,20.70
2018,07,06,15,45,20.70
2018,07,06,15,46,20.70
2018,07,06,15,47,20.70
2018,07,06,15,48,20.70
2018,07,06,15,49,20.70
2018,07,06,15,50,20.70
2018,07,06,15,51,20.70
2018,07,06,15,52,20.60
2018,07,06,15,53,20.60
2018,07,06,15,54,20.50
2018,07,06,15,55,20.40
2018,07,06,15,56,20.20
2018,07,06,15,57,20.20
2018,07,06,15,58,20.10
2018,07,06,15,59,19.90
2018,07,06,16,00,19.90
2018,07,06,16,01,19.90
2018,07,06,16,02,19.90
2018,07,06,16,03,19.90
2018,07,06,16,04,19.90
2018,07,06,16,05,19.90
2018,07,06,16,06,20.10
2018,07,06,16,07,20.20
2018,07,06,16,08,20.20
2018,07,06,16,09,20.20
2018,07,06,16,10,20.30
2018,07,06,16,11,20.40
2018,07,06,16,12,20.50
2018,07,06,16,13,20.60
2018,07,06,16,14,20.70
2018,07,06,16,15,20.80
2018,07,06,16,16,20.90
2018,07,06,16,17,21.00
2018,07,06,16,18,21.10
2018,07,06,16,19,21.30
2018,07,06,16,20,21.40
2018,07,06,16,21,21.60
2018,07,06,16,22,21.90
2018,07,06,16,23,22.10
2018,07,06,16,24,22.40
2018,07,06,16,25,22.60
2018,07,06,16,26,22.80
2018,07,06,16,27,23.10
2018,07,06,16,28,23.20
2018,07,06,16,29,23.30
2018,07,06,16,30,23.40
2018,07,06,16,31,23.60
2018,07,06,16,32,23.70
2018,07,06,16,33,23.80
2018,07,06,16,34,23.90
2018,07,06,16,35,24.10
2018,07,06,16,36,24.10
2018,07,06,16,37,24.20
2018,07,06,16,38,24.40
2018,07,06,16,39,24.50
2018,07,06,16,40,24.60
2018,07,06,16,41,24.70
2018,07,06,16,42,24.70
2018,07,06,16,43,24.80
2018,07,06,16,44,24.80
2018,07,06,16,45,24.90
2018,07,06,16,46,24.90
2018,07,06,16,47,25.00
2018,07,06,16,48,25.10
2018,07,06,16,49,25.10
2018,07,06,16,50,25.20
2018,07,06,16,51,25.20
2018,07,06,16,52,25.20
2018,07,06,16,53,25.20
2018,07,06,16,54,25.20
2018,07,06,16,55,25.10
2018,07,06,16,56,25.10
2018,07,06,16,57,25.00
2018,07,06,16,58,24.90
2018,07,06,16,59,24.80
2018,07,06,17,00,24.70
2018,07,06,17,01,24.60
2018,07,06,17,02,24.60
2018,07,06,17,03,24.50
2018,07,06,17,04,24.50
2018,07,06,17,05,24.50
2018,07,06,17,06,24.60
2018,07,06,17,07,24.60
2018,07,06,17,08,24.70
2018,07,06,17,09,24.70
2018,07,06,17,10,24.70
2018,07,06,17,11,24.80
2018,07,06,17,12,24.80
2018,07,06,17,13,24.80
2018,07,06,17,14,24.90
2018,07,06,17,15,24.90
2018,07,06,17,16,24.80
2018,07,06,17,17,24.80
2018,07,06,17,18,24.80
2018,07,06,17,19,24.80
2018,07,06,17,30,25.20
2018,07,06,17,31,25.30
2018,07,06,17,32,25.30
2018,07,06,17,33,25.30
2018,07,06,17,34,25.40
2018,07,06,17,35,25.40
2018,07,06,17,36,25.30
2018,07,06,17,37,25.40
2018,07,06,17,38,25.30
2018,07,06,17,39,25.30
2018,07,06,17,40,25.30
2018,07,06,17,41,25.30
2018,07,06,17,42,25.30
2018,07,06,17,43,25.30
2018,07,06,17,44,25.30
2018,07,06,17,45,25.30
2018,07,06,17,46,25.30
2018,07,06,17,47,25.30
2018,07,06,17,48,25.20
2018,07,06,17,49,25.20
2018,07,06,17,50,25.10
2018,07,06,17,51,25.10
2018,07,06,17,52,25.10
2018,07,06,17,53,25.00
2018,07,06,17,54,25.00
2018,07,06,17,55,25.00
2018,07,06,17,56,24.90
2018,07,06,17,57,24.80
2018,07,06,17,58,24.70
2018,07,06,17,59,24.70
2018,07,06,18,00,24.60
2018,07,06,18,01,24.50
2018,07,06,18,02,24.50
2018,07,06,18,03,24.40
2018,07,06,18,04,24.40
2018,07,06,18,05,24.30
2018,07,06,18,06,24.30
2018,07,06,18,07,24.30
2018,07,06,18,08,24.30
2018,07,06,18,09,24.30
2018,07,06,18,10,24.30
2018,07,06,18,11,24.30
2018,07,06,18,12,24.30
2018,07,06,18,13,24.30
2018,07,06,18,14,24.40
2018,07,06,18,15,24.30
2018,07,06,18,16,24.30
2018,07,06,18,17,24.30
2018,07,06,18,18,24.30
2018,07,06,18,19,24.40
2018,07,06,18,20,24.40
2018,07,06,18,21,24.40
2018,07,06,18,22,24.40
2018,07,06,18,23,24.40
2018,07,06,18,24,24.40
2018,07,06,18,25,24.40
2018,07,06,18,26,24.40
2018,07,06,18,27,24.30
2018,07,06,18,28,24.20
2018,07,06,18,29,24.20
2018,07,06,18,30,24.10
2018,07,06,19,30,21.80
2018,07,06,19,31,21.80
2018,07,06,19,32,21.70
2018,07,06,19,33,21.70
2018,07,06,19,34,21.70
2018,07,06,19,35,21.60
2018,07,06,19,36,21.60
2018,07,06,19,37,21.60
2018,07,06,19,38,21.40
2018,07,06,19,39,21.30
2018,07,06,19,40,21.30
2018,07,06,19,41,21.30
2018,07,06,19,42,21.20
2018,07,06,19,43,21.10
2018,07,06,19,44,21.10
2018,07,06,19,45,21.00
2018,07,06,19,46,21.00
2018,07,06,19,47,20.90
2018,07,06,19,48,20.90
2018,07,06,19,49,20.80
2018,07,06,19,50,20.70
2018,07,06,19,51,20.60
2018,07,06,19,52,20.50
2018,07,06,19,53,20.50
2018,07,06,19,54,20.40
2018,07,06,19,55,20.40
2018,07,06,19,56,20.30
2018,07,06,19,57,20.30
2018,07,06,19,58,20.30
2018,07,06,19,59,20.20
2018,07,06,20,00,20.20
2018,07,06,20,01,20.20
2018,07,06,20,02,20.20
2018,07,06,20,03,20.20
2018,07,06,20,04,20.20
2018,07,06,20,30,19.90
2018,07,06,20,31,19.90
2018,07,06,20,32,19.80
2018,07,06,20,33,19.80
2018,07,06,20,34,19.80
2018,07,06,20,35,19.80
2018,07,06,20,36,19.80
2018,07,06,20,37,19.80
2018,07,06,20,38,19.80
2018,07,06,20,39,19.70
2018,07,06,20,40,19.70
2018,07,06,20,41,19.70
2018,07,06,20,42,19.70
2018,07,06,20,43,19.70
2018,07,06,20,44,19.70
2018,07,06,20,45,19.70
2018,07,06,20,46,19.70
2018,07,06,20,47,19.70
2018,07,06,20,48,19.70
2018,07,06,20,49,19.70
2018,07,06,20,50,19.70
2018,07,06,20,51,19.70
2018,07,06,20,52,19.70
2018,07,06,20,53,19.70
2018,07,06,20,54,19.60
2018,07,06,20,55,19.60
2018,07,06,20,56,19.60
2018,07,06,20,57,19.60
2018,07,06,20,58,19.60
2018,07,06,20,59,19.60
2018,07,06,21,00,19.60
2018,07,06,21,01,19.60
2018,07,06,21,02,19.60
2018,07,06,21,03,19.60
2018,07,06,21,04,19.60
2018,07,06,21,30,19.10
2018,07,06,21,31,19.10
2018,07,06,21,32,19.10
2018,07,06,21,33,19.10
2018,07,06,21,34,19.10
2018,07,06,21,35,19.10
2018,07,06,21,36,19.10
2018,07,06,21,37,19.10
2018,07,06,21,38,18.90
2018,07,06,21,39,18.90
2018,07,06,21,40,18.90
2018,07,06,21,41,18.90
2018,07,06,21,42,18.90
2018,07,06,21,43,18.90
2018,07,06,21,44,18.90
2018,07,06,21,45,18.90
2018,07,06,21,46,18.90
2018,07,06,21,47,18.80
2018,07,06,21,48,18.80
2018,07,06,21,49,18.80
2018,07,06,21,50,18.80
2018,07,06,21,51,18.80
2018,07,06,21,52,18.70
2018,07,06,21,53,18.70
2018,07,06,21,54,18.70
2018,07,06,21,55,18.70
2018,07,06,21,56,18.70
2018,07,06,21,57,18.70
2018,07,06,21,58,18.70
2018,07,06,21,59,18.70
2018,07,06,22,00,18.70
2018,07,06,22,01,18.70
2018,07,06,22,02,18.60
2018,07,06,22,03,18.60
2018,07,06,22,04,18.60
2018,07,06,22,05,18.60
2018,07,06,22,06,18.60
2018,07,06,22,07,18.60
2018,07,06,22,08,18.60
2018,07,06,22,09,18.60